CW5306 Weather Reports


time (UTC)temp
C
wind
direction
speed
KPH
gust
KPH
rain 1hr
cm
rain 24hr
cm
rain mn
cm
humidity
%
barometer
mb
20260906140152 24 57 1.6 17.7 0.08 0.53 0.10 90 1009.5
20260906135652 24 155 6.4 22.5 0.08 0.53 0.10 89 1009.5
20260906135151 25 130 9.7 22.5 0.08 0.51 0.08 89 1009.5
20260906134651 25 107 16.1 22.5 0.03 0.46 0.03 89 1009.5
20260906134422 25 115 9.7 16.1 0.03 0.48 0.03 89 1009.7
20260906133925 25 130 9.7 16.1 0.03 0.48 0.03 89 1009.6
20260906133710 25 130 9.7 16.1 0.03 0.48 0.03 89 1009.6
20260906133423 25 142 8.0 14.5 0.03 0.48 0.03 89 1009.5
20260906132652 25 108 9.7 17.7 0.03 0.48 0.03 89 1009.6
20260906132159 24 120 11.3 20.9 0.03 0.48 0.03 89 1009.7
20260906132153 24 145 6.4 17.7 0.03 0.48 0.03 89 1009.7
20260906131942 24 120 11.3 20.9 0.03 0.48 0.03 89 1009.7
20260906131152 25 130 6.4 20.9 0.03 0.48 0.03 89 1009.7
20260906130932 25 105 9.7 30.6 0.03 0.48 0.03 88 1009.8
20260906130654 25 112 12.9 20.9 0.03 0.48 0.03 88 1009.6
20260906125923 25 145 9.7 32.2 0.03 0.48 0.03 87 1009.8
20260906125152 25 109 9.7 32.2 0.00 0.46 0.00 86 1009.8
20260906124652 25 58 6.4 32.2 0.00 0.46 0.00 85 1009.6
20260906124140 25 84 12.9 24.1 0.00 0.46 0.00 86 1009.8
20260906123640 25 75 9.7 27.4 0.00 0.46 0.00 86 1009.9
20260906123140 25 83 8.0 27.4 0.00 0.46 0.00 86 1010.1
20260906122640 25 121 9.7 24.1 0.00 0.46 0.00 86 1010.1
20260906122140 25 73 12.9 24.1 0.00 0.46 0.00 86 1009.9
20260906121640 25 83 12.9 27.4 0.00 0.46 0.00 86 1010.1
20260906121139 25 103 16.1 27.4 0.00 0.46 0.00 85 1010.1
20260906120627 25 112 14.5 24.1 0.00 0.46 0.00 86 1009.9
20260906120127 25 79 6.4 24.1 0.00 0.46 0.00 86 1010.1
20260906115629 25 71 16.1 24.1 0.00 0.46 0.00 85 1010.2
20260906115359 25 88 12.9 20.9 0.00 0.46 0.00 85 1010.0
20260906114628 25 124 9.7 30.6 0.00 0.46 0.00 85 1010.2
20260906114358 25 93 11.3 30.6 0.00 0.46 0.00 85 1010.1
20260906113859 25 67 14.5 25.7 0.00 0.46 0.00 85 1010.2
20260906113115 25 78 16.1 25.7 0.00 0.46 0.00 85 1010.2
20260906112617 25 72 9.7 24.1 0.00 0.46 0.00 85 1010.2
20260906112115 25 101 8.0 24.1 0.00 0.46 0.00 85 1010.7
20260906111616 25 87 14.5 24.1 0.00 0.46 0.00 85 1010.8
20260906111346 25 103 8.0 24.1 0.00 0.46 0.00 85 1010.6
20260906110615 25 81 9.7 24.1 0.00 0.46 0.00 85 1011.0
20260906110115 25 72 6.4 25.7 0.00 0.46 0.00 85 1011.0
20260906105603 25 89 11.3 25.7 0.00 0.46 0.00 85 1010.6
20260906105335 25 106 9.7 25.7 0.00 0.46 0.00 85 1011.0
20260906104556 25 64 11.3 22.5 0.00 0.46 0.00 85 1010.9
20260906104052 25 66 9.7 24.1 0.00 0.46 0.00 85 1010.9
20260906103614 25 107 12.9 24.1 0.00 0.46 0.00 85 1011.2
20260906103323 25 105 11.3 22.5 0.00 0.46 0.00 85 1011.3
20260906102601 25 85 9.7 20.9 0.00 0.46 0.00 85 1011.2
20260906102054 25 141 6.4 24.1 0.00 0.46 0.00 85 1011.3
20260906101553 25 123 6.4 24.1 0.00 0.46 0.00 85 1011.3
20260906101310 25 62 9.7 25.7 0.00 0.46 0.00 85 1011.4
20260906100541 25 92 16.1 25.7 0.00 0.46 0.00 84 1011.3
20260906100040 25 80 12.9 24.1 0.00 0.46 0.00 85 1011.3
20260906095539 25 113 6.4 24.1 0.00 0.46 0.46 85 1011.2
20260906095039 25 127 14.5 24.1 0.00 0.46 0.46 84 1011.5
20260906094540 25 92 9.7 22.5 0.00 0.46 0.46 84 1011.5
20260906094039 25 64 11.3 22.5 0.00 0.46 0.46 84 1011.6
20260906093540 25 60 16.1 22.5 0.00 0.46 0.46 84 1011.8
20260906093039 25 52 11.3 22.5 0.00 0.46 0.46 84 1011.7
20260906092810 25 96 12.9 20.9 0.00 0.46 0.46 84 1011.6
20260906092040 25 73 8.0 22.5 0.00 0.46 0.46 84 1011.2
20260906091540 25 89 8.0 22.5 0.00 0.46 0.46 84 1011.5
20260906091311 25 83 6.4 32.2 0.00 0.46 0.46 84 1011.8
20260906090528 25 83 9.7 32.2 0.00 0.46 0.46 84 1011.9
20260906090027 25 94 9.7 22.5 0.00 0.46 0.46 84 1012.0
20260906085758 25 79 17.7 22.5 0.00 0.46 0.46 85 1011.9
20260906085028 25 129 6.4 20.9 0.00 0.46 0.46 85 1011.9
20260906084529 25 96 14.5 20.9 0.00 0.46 0.46 84 1011.9
20260906084028 25 70 8.0 20.9 0.00 0.46 0.46 84 1012.2
20260906083759 25 74 6.4 22.5 0.00 0.46 0.46 85 1012.0
20260906083027 25 101 9.7 22.5 0.00 0.46 0.46 85 1012.1
20260906082527 25 114 12.9 22.5 0.00 0.46 0.46 86 1012.1
20260906082028 25 57 12.9 22.5 0.00 0.46 0.46 86 1012.1
20260906081528 25 76 12.9 24.1 0.00 0.46 0.46 85 1012.3
20260906081028 25 89 9.7 24.1 0.00 0.46 0.46 85 1012.1
20260906080528 25 46 9.7 22.5 0.00 0.46 0.46 85 1012.2
20260906080258 25 87 6.4 22.5 0.00 0.46 0.46 85 1012.2
20260906075527 25 102 17.7 24.1 0.00 0.46 0.46 85 1012.4
20260906075028 25 54 11.3 25.7 0.00 0.46 0.46 85 1012.2
20260906074529 25 80 9.7 30.6 0.00 0.46 0.46 85 1012.3
20260906074027 25 96 6.4 30.6 0.00 0.46 0.46 85 1012.5
20260906073527 25 99 9.7 24.1 0.00 0.46 0.46 85 1012.5
20260906073029 25 104 11.3 24.1 0.00 0.46 0.46 85 1012.2
20260906072528 25 100 8.0 24.1 0.00 0.46 0.46 85 1012.0
20260906072029 25 126 8.0 22.5 0.00 0.46 0.46 85 1012.1
20260906071800 25 62 4.8 17.7 0.00 0.46 0.46 85 1012.2
20260906071258 25 102 6.4 17.7 0.00 0.46 0.46 84 1012.1
20260906070528 25 122 9.7 20.9 0.00 0.46 0.46 84 1012.2
20260906070028 25 89 9.7 25.7 0.00 0.46 0.46 84 1012.0
20260906065527 25 106 4.8 25.7 0.00 0.46 0.46 85 1011.9
20260906065027 25 98 12.9 25.7 0.00 0.46 0.46 85 1011.9
20260906064528 25 88 9.7 25.7 0.00 0.46 0.46 85 1011.8
20260906064028 25 103 4.8 20.9 0.00 0.46 0.46 85 1011.9
20260906063759 25 106 9.7 24.1 0.00 0.46 0.46 85 1011.8
20260906063028 25 73 11.3 24.1 0.00 0.46 0.46 85 1011.8
20260906062527 25 67 9.7 27.4 0.00 0.46 0.46 85 1011.8
20260906062028 25 103 17.7 27.4 0.00 0.46 0.46 85 1011.6
20260906061529 25 70 9.7 24.1 0.00 0.46 0.46 86 1011.4
20260906061049 25 101 12.9 24.1 0.00 0.46 0.46 85 1011.3
20260906060527 25 49 6.4 27.4 0.00 0.46 0.46 84 1011.3
20260906060027 25 54 11.3 27.4 0.00 0.46 0.46 83 1011.3
20260906055533 25 105 12.9 22.5 0.00 0.46 0.46 83 1011.1
20260906055527 25 93 14.5 22.5 0.00 0.46 0.46 83 1011.6
20260906054528 25 135 11.3 22.5 0.00 0.46 0.46 83 1011.3
20260906054029 25 115 14.5 22.5 0.00 0.46 0.46 83 1011.4
20260906053527 25 128 11.3 24.1 0.00 0.46 0.46 83 1011.0
20260906053028 25 88 11.3 24.1 0.00 0.46 0.46 82 1011.2
20260906052528 25 94 4.8 24.1 0.00 0.46 0.46 82 1010.7
20260906052027 25 112 9.7 17.7 0.00 0.46 0.46 81 1011.0
20260906051527 25 125 4.8 16.1 0.00 0.46 0.46 81 1010.9
20260906051027 25 128 6.4 24.1 0.00 0.46 0.46 81 1010.8
20260906050527 25 101 12.9 24.1 0.00 0.46 0.46 81 1010.8
20260906050029 25 109 14.5 27.4 0.00 0.46 0.46 83 1011.0
20260906045529 25 102 16.1 27.4 0.00 0.46 0.46 84 1011.1
20260906045027 25 142 8.0 25.7 0.00 0.46 0.46 84 1011.1
20260906044527 25 130 9.7 25.7 0.00 0.46 0.46 84 1011.0
20260906044028 25 125 14.5 22.5 0.00 0.46 0.46 84 1011.0
20260906043527 25 106 17.7 25.7 0.00 0.46 0.46 83 1010.7
20260906043027 25 137 6.4 25.7 0.00 0.46 0.46 83 1010.6
20260906042529 25 91 14.5 20.9 0.00 0.46 0.46 84 1010.6
20260906042258 25 88 8.0 20.9 0.00 0.46 0.46 84 1010.9
20260906041528 25 147 8.0 22.5 0.00 0.46 0.46 84 1010.4
20260906041259 25 129 6.4 22.5 0.00 0.46 0.46 84 1010.6
20260906040528 25 119 9.7 24.1 0.00 0.46 0.46 85 1010.5
20260906040027 25 125 8.0 25.7 0.00 0.46 0.46 85 1010.5
20260906035527 25 92 6.4 25.7 0.00 0.46 0.46 85 1010.6
20260906035028 25 84 9.7 27.4 0.00 0.46 0.46 86 1010.6
20260906034528 25 120 6.4 27.4 0.00 0.46 0.46 85 1010.2
20260906034029 25 98 14.5 25.7 0.00 0.46 0.46 86 1010.3
20260906033529 24 101 9.7 32.2 0.03 0.46 0.46 86 1010.4
20260906033016 24 124 12.9 32.2 0.05 0.46 0.46 87 1010.3
20260906032516 24 98 6.4 32.2 0.05 0.46 0.46 88 1010.3
20260906032022 24 103 8.0 24.1 0.13 0.46 0.46 89 1010.2
20260906032015 24 86 9.7 32.2 0.13 0.46 0.46 89 1010.3
20260906031015 24 50 6.4 27.4 0.13 0.46 0.46 89 1010.3
20260906030515 24 101 9.7 33.8 0.13 0.46 0.46 89 1010.2
20260906030016 24 70 12.9 33.8 0.15 0.46 0.46 89 1010.2
20260906025748 24 99 11.3 25.7 0.15 0.46 0.46 90 1010.2
20260906025246 24 101 9.7 17.7 0.15 0.46 0.46 90 1010.1
20260906024748 23 76 8.0 22.5 0.13 0.43 0.46 90 1010.1
20260906024016 23 81 11.3 24.1 0.13 0.43 0.43 89 1010.3
20260906023515 23 92 16.1 25.7 0.10 0.43 0.43 89 1010.2
20260906023015 23 109 14.5 25.7 0.10 0.41 0.41 89 1010.4
20260906022503 23 169 11.3 17.7 0.08 0.38 0.38 88 1010.5
20260906022003 24 132 9.7 16.1 0.03 0.33 0.36 89 1010.6
20260906021503 24 134 6.4 17.7 0.08 0.33 0.33 88 1010.7
20260906021234 24 88 9.7 25.7 0.18 0.33 0.33 88 1010.8
20260906020504 24 121 8.0 30.6 0.23 0.30 0.30 88 1010.8
20260906020004 24 110 14.5 30.6 0.23 0.30 0.30 87 1010.7
20260906015742 25 103 17.7 32.2 0.23 0.30 0.30 88 1010.5
20260906015223 25 89 17.7 32.2 0.23 0.30 0.30 88 1010.4
20260906014439 25 28 11.3 24.1 0.23 0.30 0.30 89 1010.6
20260906013939 25 65 9.7 20.9 0.23 0.30 0.30 89 1010.4
20260906013444 24 86 0.0 20.9 0.23 0.30 0.30 89 1010.5
20260906012940 24 47 16.1 20.9 0.23 0.30 0.30 89 1010.5
20260906012441 24 130 4.8 20.9 0.23 0.30 0.30 88 1010.5
20260906011940 24 114 6.4 22.5 0.23 0.30 0.30 87 1010.7
20260906011440 25 99 17.7 22.5 0.18 0.25 0.25 86 1010.5
20260906010940 25 132 9.7 22.5 0.03 0.10 0.13 84 1010.7
20260906010440 25 123 6.4 22.5 0.00 0.08 0.08 83 1010.3
20260906005939 25 156 4.8 20.9 0.00 0.08 0.08 81 1010.7
20260906005439 26 102 6.4 20.9 0.00 0.08 0.08 80 1010.7
20260906004940 26 144 14.5 17.7 0.00 0.08 0.08 80 1010.6
20260906004441 26 194 12.9 22.5 0.00 0.08 0.08 80 1010.5
20260906004210 26 129 9.7 22.5 0.00 0.08 0.08 80 1010.6
20260906003441 26 114 8.0 24.1 0.00 0.08 0.08 80 1011.0
20260906002940 26 110 9.7 30.6 0.00 0.08 0.08 80 1010.8
20260906002441 26 112 14.5 30.6 0.00 0.08 0.08 78 1011.1
20260906001939 26 92 19.3 32.2 0.00 0.08 0.08 78 1010.6
20260906001710 26 89 12.9 32.2 0.00 0.08 0.08 77 1010.8
20260906001210 27 107 16.1 27.4 0.00 0.08 0.08 78 1010.8
20260906000441 27 71 16.1 27.4 0.00 0.08 0.08 79 1010.8
20260905235939 27 112 19.3 30.6 0.00 0.08 0.08 79 1011.0
20260905235439 27 52 11.3 32.2 0.00 0.08 0.08 79 1011.1
20260905234940 27 124 20.9 32.2 0.00 0.08 0.08 79 1011.0
20260905234440 27 80 14.5 32.2 0.00 0.08 0.08 79 1011.0
20260905233941 27 105 16.1 32.2 0.00 0.08 0.08 79 1011.1
20260905233445 27 54 16.1 27.4 0.00 0.08 0.08 79 1011.1
20260905233439 27 64 19.3 32.2 0.00 0.08 0.08 77 1011.2
20260905232439 27 85 14.5 33.8 0.00 0.08 0.08 79 1011.2
20260905231940 26 98 8.0 33.8 0.03 0.08 0.08 79 1011.3
20260905231441 26 89 14.5 37.0 0.03 0.08 0.08 80 1011.4
20260905230941 26 70 12.9 37.0 0.03 0.08 0.08 79 1011.4
20260905230439 26 106 17.7 30.6 0.03 0.08 0.08 79 1011.3
20260905230210 26 31 14.5 27.4 0.05 0.08 0.08 80 1011.5
20260905225439 26 93 12.9 27.4 0.05 0.08 0.08 81 1011.6
20260905225210 26 109 14.5 30.6 0.05 0.08 0.08 82 1011.6
20260905224440 26 47 11.3 30.6 0.05 0.08 0.08 82 1011.5
20260905223942 26 69 14.5 24.1 0.05 0.08 0.08 85 1011.4
20260905223447 25 54 9.7 24.1 0.05 0.08 0.08 86 1011.8
20260905223441 26 50 14.5 22.5 0.05 0.08 0.08 88 1011.6
20260905222710 25 75 9.7 30.6 0.05 0.08 0.08 87 1011.9
20260905221940 25 88 14.5 33.8 0.05 0.05 0.05 86 1011.8
20260905221439 25 57 8.0 37.0 0.05 0.05 0.05 86 1012.1
20260905220940 26 75 17.7 37.0 0.05 0.05 0.05 85 1012.0
20260905220440 26 69 6.4 25.7 0.03 0.05 0.05 83 1012.0
20260905220210 27 90 16.1 27.4 0.00 0.03 0.03 81 1012.2
20260905215440 27 45 14.5 30.6 0.00 0.03 0.03 80 1012.1
20260905214939 27 103 20.9 30.6 0.00 0.03 0.03 78 1012.1
20260905214711 27 63 12.9 33.8 0.00 0.03 0.03 78 1012.1
20260905213939 27 39 14.5 33.8 0.00 0.03 0.03 77 1012.3
20260905213441 27 80 14.5 27.4 0.00 0.03 0.03 79 1012.1
20260905212945 27 88 8.0 30.6 0.00 0.03 0.03 78 1012.2
20260905212439 27 30 17.7 30.6 0.00 0.03 0.03 77 1012.3
20260905212211 27 101 9.7 27.4 0.00 0.03 0.03 77 1012.5
20260905211439 28 85 9.7 27.4 0.00 0.03 0.03 75 1012.3
20260905210940 28 106 12.9 27.4 0.00 0.03 0.03 76 1012.6
20260905210440 27 66 14.5 33.8 0.00 0.03 0.03 75 1012.3
20260905205941 27 56 17.7 33.8 0.00 0.03 0.03 77 1012.4
20260905205439 27 117 17.7 27.4 0.00 0.03 0.03 76 1012.3
20260905204940 27 53 17.7 30.6 0.00 0.03 0.03 75 1012.4
20260905204439 27 95 9.7 30.6 0.00 0.03 0.03 78 1012.3
20260905204210 27 83 11.3 27.4 0.00 0.03 0.03 77 1012.5
20260905203711 27 65 14.5 27.4 0.00 0.03 0.03 76 1012.6
20260905203210 27 136 14.5 27.4 0.00 0.03 0.03 76 1012.4
20260905202440 27 88 9.7 30.6 0.00 0.03 0.03 77 1012.4
20260905201940 27 63 11.3 30.6 0.00 0.03 0.03 77 1012.5
20260905201440 27 64 14.5 25.7 0.00 0.03 0.03 77 1012.5
20260905200940 27 84 16.1 25.7 0.00 0.03 0.03 77 1012.1
20260905200428 27 57 22.5 27.4 0.00 0.03 0.03 79 1012.5
20260905195929 26 83 14.5 27.4 0.00 0.03 0.03 81 1012.4
20260905195428 26 60 16.1 40.2 0.00 0.03 0.03 80 1012.5
20260905194928 26 63 8.0 40.2 0.00 0.03 0.03 80 1012.4
20260905194429 26 84 22.5 38.6 0.00 0.03 0.03 80 1012.4
20260905193927 26 60 20.9 33.8 0.00 0.03 0.03 80 1012.4
20260905193428 27 23 14.5 32.2 0.00 0.03 0.03 79 1012.6
20260905193148 27 58 20.9 32.2 0.00 0.03 0.03 77 1012.2
20260905192416 27 111 17.7 32.2 0.00 0.03 0.03 77 1012.3
20260905191916 26 39 11.3 37.0 0.00 0.03 0.03 77 1012.5
20260905191647 26 77 19.3 37.0 0.00 0.03 0.03 77 1012.2
20260905190916 26 87 9.7 33.8 0.00 0.03 0.03 78 1012.3
20260905190415 26 39 17.7 33.8 0.00 0.03 0.03 78 1012.3
20260905185903 26 64 12.9 33.8 0.00 0.03 0.03 78 1012.1
20260905185404 26 87 20.9 33.8 0.00 0.03 0.03 78 1012.0
20260905185135 26 54 19.3 33.8 0.00 0.03 0.03 78 1012.0
20260905184404 26 87 16.1 32.2 0.00 0.03 0.03 78 1011.8
20260905183904 26 89 20.9 25.7 0.00 0.03 0.03 80 1011.9
20260905183404 26 102 11.3 20.9 0.00 0.03 0.03 79 1011.8
20260905182903 26 127 11.3 25.7 0.00 0.03 0.03 78 1012.0
20260905182352 26 53 9.7 30.6 0.00 0.03 0.03 78 1011.8
20260905181853 26 97 14.5 30.6 0.00 0.03 0.03 77 1011.8
20260905181339 26 26 9.7 27.4 0.00 0.03 0.03 78 1011.8
20260905181110 26 122 12.9 25.7 0.00 0.03 0.03 77 1011.8
20260905180340 26 105 12.9 25.7 0.00 0.03 0.03 78 1011.7
20260905180111 26 84 6.4 25.7 0.00 0.03 0.03 78 1011.7
20260905175340 26 92 6.4 24.1 0.00 0.03 0.03 80 1011.5
20260905175110 26 82 12.9 25.7 0.00 0.03 0.03 80 1011.8
20260905174340 25 107 11.3 25.7 0.00 0.03 0.03 82 1011.5
20260905174110 25 139 11.3 24.1 0.00 0.03 0.03 81 1011.6
20260905173340 25 69 17.7 32.2 0.00 0.03 0.03 81 1011.4
20260905172842 25 79 14.5 32.2 0.00 0.03 0.03 82 1011.4
20260905172340 25 58 17.7 25.7 0.00 0.03 0.03 81 1011.2
20260905171840 25 66 12.9 25.7 0.00 0.03 0.03 81 1011.5
20260905171345 25 90 12.9 25.7 0.00 0.03 0.03 80 1011.4
20260905171340 25 100 12.9 24.1 0.00 0.03 0.03 81 1011.2
20260905170610 25 74 14.5 25.7 0.00 0.03 0.03 79 1011.5
20260905165839 25 114 6.4 27.4 0.00 0.03 0.03 78 1011.3
20260905165340 25 127 14.5 27.4 0.00 0.03 0.03 80 1011.3
20260905164839 25 70 16.1 25.7 0.00 0.03 0.03 81 1011.1
20260905164625 25 80 11.3 25.7 0.00 0.03 0.03 81 1011.1
20260905164111 25 113 12.9 25.7 0.00 0.03 0.03 82 1011.0
20260905163339 25 81 9.7 33.8 0.00 0.03 0.03 81 1011.0
20260905162839 25 91 16.1 33.8 0.00 0.03 0.03 81 1011.0
20260905162340 25 66 14.5 27.4 0.00 0.03 0.03 80 1011.0
20260905161840 25 105 8.0 24.1 0.00 0.03 0.03 81 1011.0
20260905161340 24 81 12.9 24.1 0.00 0.03 0.03 81 1010.9
20260905160840 24 89 6.4 25.7 0.00 0.03 0.03 82 1011.1
20260905160339 24 116 17.7 25.7 0.00 0.03 0.03 83 1010.8
20260905155840 24 86 16.1 22.5 0.00 0.03 0.03 83 1010.9
20260905155340 24 56 4.8 22.5 0.00 0.03 0.03 83 1011.0
20260905154840 24 93 3.2 22.5 0.00 0.03 0.03 83 1011.2
20260905154339 24 132 8.0 24.1 0.00 0.05 0.03 83 1010.9
20260905154111 24 102 4.8 24.1 0.00 0.05 0.03 83 1011.0
20260905153341 25 98 14.5 22.5 0.00 0.05 0.03 82 1011.1
20260905152839 25 100 14.5 22.5 0.00 0.05 0.03 83 1011.3
20260905152341 25 83 11.3 20.9 0.00 0.05 0.03 82 1011.2
20260905151840 25 108 9.7 22.5 0.00 0.05 0.03 82 1011.2
20260905151611 24 32 14.5 22.5 0.00 0.05 0.03 81 1010.7
20260905150842 24 110 8.0 24.1 0.00 0.05 0.03 81 1010.9
20260905150611 24 85 9.7 24.1 0.00 0.05 0.03 81 1011.0
20260905150117 24 115 6.4 25.7 0.00 0.05 0.03 82 1011.0
20260905145840 24 105 9.7 25.7 0.00 0.05 0.03 81 1011.0
20260905144839 24 49 17.7 25.7 0.00 0.05 0.03 82 1011.1
20260905144340 24 94 19.3 30.6 0.03 0.05 0.03 82 1010.9
20260905143841 24 74 17.7 30.6 0.03 0.05 0.03 82 1010.9
20260905143340 24 108 9.7 27.4 0.03 0.05 0.03 82 1010.9
20260905142845 24 58 19.3 32.2 0.03 0.05 0.03 81 1011.2
20260905142839 24 122 9.7 32.2 0.03 0.05 0.03 82 1011.0
20260905141840 24 78 17.7 30.6 0.03 0.05 0.03 81 1011.0
20260905141611 24 67 6.4 32.2 0.03 0.05 0.03 82 1011.1
20260905140840 24 102 11.3 32.2 0.03 0.05 0.03 81 1011.0
20260905140340 24 102 12.9 32.2 0.03 0.05 0.03 81 1010.9